Simultaneous Nadir Overpasses (SNOs) Predictions

Prediction of SNOs between AQUA and GOES-15 Satellite Orbit:

Table of predicted SNOs for the next 14.0 days since TLE Epoch: 4/12/2013
Index Date Time (AQUA) AQUA Lat,Lon GOES-15 Lat,Lon Distance(km) Time Diff (sec)
1 04/13/2013 22:29:57 0.27,-133.51 -0.04,-134.84 152.69 80
2 04/14/2013 10:51:11 0.85,-138.66 0.04,-134.85 433.10 80
3 04/15/2013 22:17:46 0.91,-130.55 -0.05,-134.88 493.09 80
4 04/16/2013 10:39:00 0.21,-135.70 0.04,-134.88 92.79 80
5 04/18/2013 10:26:48 -0.40,-132.74 0.05,-134.91 247.30 80
6 04/18/2013 22:48:13 -0.66,-137.94 -0.04,-134.93 341.68 80
7 04/20/2013 22:36:00 -0.07,-134.96 -0.05,-134.95 2.76 80
8 04/22/2013 22:23:48 0.61,-132.01 -0.05,-134.97 337.48 80
9 04/23/2013 10:45:03 0.49,-137.16 0.05,-134.97 248.65 80
10 04/25/2013 10:32:49 -0.10,-134.19 0.04,-134.98 89.93 80
11 04/25/2013 22:54:13 -0.98,-139.38 -0.04,-134.99 499.68 80




NCC Satellite Simultaneous Nadir Overpasses (SNOs) Prediction Service
